Location: Frydek-Mistek
(49.6830°N, 18.3330°E)
Time: 07:17:24
(UTC+01:00)

Courier 1B Rocket - All Passes

Search period start: 31 October 2014 00:00
Search period end: 10 November 2014 00:00
Orbit: 921 x 1202 km, 28.3° (Epoch: 29 October)

Date Brightness Start Highest point End Pass type
(mag) Time Alt. Az. Time Alt. Az. Time Alt. Az.
31 Oct - 01:16:14 10° SSW 01:19:21 13° S 01:22:31 10° SSE night (unlit)
31 Oct - 03:08:47 10° SSW 03:11:29 12° S 03:14:12 10° S visible
01 Nov - 00:16:32 10° S 00:18:44 11° SSE 00:20:58 10° SSE night (unlit)
01 Nov - 02:07:41 10° SSW 02:10:49 13° S 02:14:00 10° SSE visible
02 Nov - 01:07:05 10° SSW 01:10:11 13° S 01:13:20 10° SSE night (unlit)
03 Nov - 00:06:56 10° SSW 00:09:34 12° S 00:12:14 10° SSE night (unlit)
03 Nov - 01:59:27 10° SSW 02:01:39 11° S 02:03:52 10° S visible
03 Nov - 23:07:35 10° S 23:08:59 11° S 23:10:24 10° SSE night (unlit)
04 Nov - 00:58:24 10° SSW 01:01:01 12° S 01:03:41 10° SSE night (unlit)
04 Nov - 23:57:54 10° SSW 00:00:25 12° S 00:02:59 10° SSE night (unlit)
05 Nov - 22:57:55 10° S 22:59:51 11° S 23:01:48 10° SSE night (unlit)
06 Nov - 00:50:39 10° SSW 00:51:52 10° S 00:53:06 10° S night (unlit)
06 Nov - 23:49:27 10° SSW 23:51:18 11° S 23:53:09 10° S night (unlit)
07 Nov - 22:49:00 10° SSW 22:50:44 11° S 22:52:30 10° SSE night (unlit)
08 Nov - 21:49:23 10° S 21:50:13 10° S 21:51:03 10° SSE night (unlit)
